User: anonymous   Login
Location: Unspecified
(0.0000°N, 0.0000°E)
Time: 23:18:11
(UTC+00:00)
Language:

STARLINK-34752 - Orbit

View from above orbital plane
View from above orbital plane
View from above satellite
View from above satellite

Ground track
Ground track

The orbit is defined by the following mean orbital elements,

1 66153U          26145.48927456 +.00000000 +00000-0 +57166-3 0 00005
2 66153  53.1598  65.6075 0001290  87.0593 273.0557 15.34401730    04
Epoch (UTC): 25 May 2026 11:44:33
Eccentricity: 0.0001290
inclination: 53.1598°
perigee height: 462 km
apogee height: 464 km
right ascension of ascending node: 65.6075°
argument of perigee: 87.0593°
revolutions per day: 15.34401730
mean anomaly at epoch: 273.0557°

The dashed part of the orbit path shows where the satellite is in the earth's shadow,  

DLR